Time,TemperatureF,DewpointF,PressureIn,WindDirection,WindDirectionDegrees,WindSpeedMPH,WindSpeedGustMPH,Humidity,HourlyPrecipIn,Conditions,Clouds,dailyrainin,SoftwareType,DateUTC
2013-06-03 00:00:00,67.0,51.3,29.61,WNW,292,0.0,1.0,57,0.00,,,0.00,WeatherCatV1.15B25,2013-06-03 07:00:00,
2013-06-03 00:05:00,67.0,51.3,29.61,WNW,292,0.0,1.0,57,0.00,,,0.00,WeatherCatV1.15B25,2013-06-03 07:05:00,
2013-06-03 00:10:00,67.0,51.3,29.61,WNW,292,0.0,1.0,57,0.00,,,0.00,WeatherCatV1.15B25,2013-06-03 07:10:00,
2013-06-03 00:15:00,67.0,51.3,29.61,WNW,292,0.0,1.0,57,0.00,,,0.00,WeatherCatV1.15B25,2013-06-03 07:15:00,
2013-06-03 00:20:00,67.0,51.3,29.61,WNW,292,0.0,1.0,57,0.00,,,0.00,WeatherCatV1.15B25,2013-06-03 07:20:00,
2013-06-03 00:25:00,67.0,51.3,29.61,WNW,292,0.0,1.0,57,0.00,,,0.00,WeatherCatV1.15B25,2013-06-03 07:25:00,
2013-06-03 00:30:00,66.0,50.3,29.61,WNW,292,0.0,0.0,57,0.00,,,0.00,WeatherCatV1.15B25,2013-06-03 07:30:00,
2013-06-03 00:35:00,66.0,50.3,29.61,WNW,292,0.0,0.0,57,0.00,,,0.00,WeatherCatV1.15B25,2013-06-03 07:35:00,
2013-06-03 00:40:00,66.0,50.3,29.61,WNW,292,0.0,0.0,57,0.00,,,0.00,WeatherCatV1.15B25,2013-06-03 07:40:00,
2013-06-03 00:45:00,66.0,50.3,29.61,WNW,292,0.0,0.0,57,0.00,,,0.00,WeatherCatV1.15B25,2013-06-03 07:45:00,
2013-06-03 00:50:00,66.0,50.3,29.61,WNW,292,0.0,0.0,57,0.00,,,0.00,WeatherCatV1.15B25,2013-06-03 07:50:00,
2013-06-03 00:55:00,66.0,50.3,29.61,WNW,292,0.0,0.0,57,0.00,,,0.00,WeatherCatV1.15B25,2013-06-03 07:55:00,
2013-06-03 01:00:00,66.0,50.3,29.61,WNW,292,0.0,0.0,57,0.00,,,0.00,WeatherCatV1.15B25,2013-06-03 08:00:00,
2013-06-03 01:05:00,66.0,50.3,29.61,WNW,292,0.0,0.0,57,0.00,,,0.00,WeatherCatV1.15B25,2013-06-03 08:05:00,
2013-06-03 01:10:00,66.0,50.3,29.61,WNW,292,0.0,0.0,57,0.00,,,0.00,WeatherCatV1.15B25,2013-06-03 08:10:00,
2013-06-03 01:15:00,66.0,50.3,29.61,WNW,292,0.0,0.0,57,0.00,,,0.00,WeatherCatV1.15B25,2013-06-03 08:15:00,
2013-06-03 01:20:00,66.0,50.3,29.61,WNW,292,0.0,0.0,57,0.00,,,0.00,WeatherCatV1.15B25,2013-06-03 08:20:00,
2013-06-03 01:25:00,66.0,50.3,29.61,WNW,292,0.0,0.0,57,0.00,,,0.00,WeatherCatV1.15B25,2013-06-03 08:25:00,
2013-06-03 01:30:00,64.5,49.9,29.61,North,0,0.0,1.0,59,0.00,,,0.00,WeatherCatV1.15B25,2013-06-03 08:30:00,
2013-06-03 01:35:00,64.5,49.9,29.61,North,0,0.0,1.0,59,0.00,,,0.00,WeatherCatV1.15B25,2013-06-03 08:35:00,
2013-06-03 01:40:00,64.5,49.9,29.61,North,0,0.0,1.0,59,0.00,,,0.00,WeatherCatV1.15B25,2013-06-03 08:40:00,
2013-06-03 01:45:00,64.5,49.9,29.61,North,0,0.0,1.0,59,0.00,,,0.00,WeatherCatV1.15B25,2013-06-03 08:45:00,
2013-06-03 01:50:00,64.5,49.9,29.61,North,0,0.0,1.0,59,0.00,,,0.00,WeatherCatV1.15B25,2013-06-03 08:50:00,
2013-06-03 01:55:00,64.5,49.9,29.61,North,0,0.0,1.0,59,0.00,,,0.00,WeatherCatV1.15B25,2013-06-03 08:55:00,
2013-06-03 02:00:00,64.5,49.9,29.61,North,0,0.0,1.0,59,0.00,,,0.00,WeatherCatV1.15B25,2013-06-03 09:00:00,
2013-06-03 02:05:00,64.5,49.9,29.61,North,0,0.0,1.0,59,0.00,,,0.00,WeatherCatV1.15B25,2013-06-03 09:05:00,
2013-06-03 02:10:00,64.5,49.9,29.61,North,0,0.0,1.0,59,0.00,,,0.00,WeatherCatV1.15B25,2013-06-03 09:10:00,
2013-06-03 02:15:00,64.5,49.9,29.61,North,0,0.0,1.0,59,0.00,,,0.00,WeatherCatV1.15B25,2013-06-03 09:15:00,
2013-06-03 02:20:00,64.5,49.9,29.61,North,0,0.0,1.0,59,0.00,,,0.00,WeatherCatV1.15B25,2013-06-03 09:20:00,
2013-06-03 02:25:00,64.5,49.9,29.61,North,0,0.0,1.0,59,0.00,,,0.00,WeatherCatV1.15B25,2013-06-03 09:25:00,
2013-06-03 02:30:00,63.7,50.0,29.60,North,0,0.0,0.0,61,0.00,,,0.00,WeatherCatV1.15B25,2013-06-03 09:30:00,
2013-06-03 02:35:00,63.7,50.0,29.60,North,0,0.0,0.0,61,0.00,,,0.00,WeatherCatV1.15B25,2013-06-03 09:35:00,
2013-06-03 02:40:00,63.7,50.0,29.60,North,0,0.0,0.0,61,0.00,,,0.00,WeatherCatV1.15B25,2013-06-03 09:40:00,
2013-06-03 02:45:00,63.7,50.0,29.60,North,0,0.0,0.0,61,0.00,,,0.00,WeatherCatV1.15B25,2013-06-03 09:45:00,
2013-06-03 02:50:00,63.7,50.0,29.60,North,0,0.0,0.0,61,0.00,,,0.00,WeatherCatV1.15B25,2013-06-03 09:50:00,
2013-06-03 02:55:00,63.7,50.0,29.60,North,0,0.0,0.0,61,0.00,,,0.00,WeatherCatV1.15B25,2013-06-03 09:55:00,
2013-06-03 03:00:00,63.7,50.0,29.60,North,0,0.0,0.0,61,0.00,,,0.00,WeatherCatV1.15B25,2013-06-03 10:00:00,
2013-06-03 03:05:00,63.7,50.0,29.60,North,0,0.0,0.0,61,0.00,,,0.00,WeatherCatV1.15B25,2013-06-03 10:05:00,
2013-06-03 03:10:00,63.7,50.0,29.60,North,0,0.0,0.0,61,0.00,,,0.00,WeatherCatV1.15B25,2013-06-03 10:10:00,
2013-06-03 03:15:00,63.7,50.0,29.60,North,0,0.0,0.0,61,0.00,,,0.00,WeatherCatV1.15B25,2013-06-03 10:15:00,
2013-06-03 03:20:00,63.7,50.0,29.60,North,0,0.0,0.0,61,0.00,,,0.00,WeatherCatV1.15B25,2013-06-03 10:20:00,
2013-06-03 03:25:00,63.7,50.0,29.60,North,0,0.0,0.0,61,0.00,,,0.00,WeatherCatV1.15B25,2013-06-03 10:25:00,
2013-06-03 03:30:00,63.3,49.6,29.60,North,0,0.0,1.0,61,0.00,,,0.00,WeatherCatV1.15B25,2013-06-03 10:30:00,
2013-06-03 03:35:00,63.3,49.6,29.60,North,0,0.0,1.0,61,0.00,,,0.00,WeatherCatV1.15B25,2013-06-03 10:35:00,
2013-06-03 03:40:00,63.3,49.6,29.60,North,0,0.0,1.0,61,0.00,,,0.00,WeatherCatV1.15B25,2013-06-03 10:40:00,
2013-06-03 03:45:00,63.3,49.6,29.60,North,0,0.0,1.0,61,0.00,,,0.00,WeatherCatV1.15B25,2013-06-03 10:45:00,
2013-06-03 03:50:00,63.3,49.6,29.60,North,0,0.0,1.0,61,0.00,,,0.00,WeatherCatV1.15B25,2013-06-03 10:50:00,
2013-06-03 03:55:00,63.3,49.6,29.60,North,0,0.0,1.0,61,0.00,,,0.00,WeatherCatV1.15B25,2013-06-03 10:55:00,
2013-06-03 04:00:00,63.3,49.6,29.60,North,0,0.0,1.0,61,0.00,,,0.00,WeatherCatV1.15B25,2013-06-03 11:00:00,
2013-06-03 04:05:00,63.3,49.6,29.60,North,0,0.0,1.0,61,0.00,,,0.00,WeatherCatV1.15B25,2013-06-03 11:05:00,
2013-06-03 04:10:00,63.3,49.6,29.60,North,0,0.0,1.0,61,0.00,,,0.00,WeatherCatV1.15B25,2013-06-03 11:10:00,
2013-06-03 04:15:00,63.3,49.6,29.60,North,0,0.0,1.0,61,0.00,,,0.00,WeatherCatV1.15B25,2013-06-03 11:15:00,
2013-06-03 04:20:00,63.3,49.6,29.60,North,0,0.0,1.0,61,0.00,,,0.00,WeatherCatV1.15B25,2013-06-03 11:20:00,
2013-06-03 04:25:00,63.3,49.6,29.60,North,0,0.0,1.0,61,0.00,,,0.00,WeatherCatV1.15B25,2013-06-03 11:25:00,
2013-06-03 04:30:00,61.2,50.1,29.60,North,0,0.0,1.0,67,0.00,,,0.00,WeatherCatV1.15B25,2013-06-03 11:30:00,
2013-06-03 04:35:00,61.2,50.1,29.60,North,0,0.0,1.0,67,0.00,,,0.00,WeatherCatV1.15B25,2013-06-03 11:35:00,
2013-06-03 04:40:00,61.2,50.1,29.60,North,0,0.0,1.0,67,0.00,,,0.00,WeatherCatV1.15B25,2013-06-03 11:40:00,
2013-06-03 04:45:00,61.2,50.1,29.60,North,0,0.0,1.0,67,0.00,,,0.00,WeatherCatV1.15B25,2013-06-03 11:45:00,
2013-06-03 04:50:00,61.2,50.1,29.60,North,0,0.0,1.0,67,0.00,,,0.00,WeatherCatV1.15B25,2013-06-03 11:50:00,
2013-06-03 04:55:00,61.2,50.1,29.60,North,0,0.0,1.0,67,0.00,,,0.00,WeatherCatV1.15B25,2013-06-03 11:55:00,
2013-06-03 05:00:00,61.2,50.1,29.60,North,0,0.0,1.0,67,0.00,,,0.00,WeatherCatV1.15B25,2013-06-03 12:00:00,
2013-06-03 05:05:00,61.2,50.1,29.60,North,0,0.0,1.0,67,0.00,,,0.00,WeatherCatV1.15B25,2013-06-03 12:05:00,
2013-06-03 05:10:00,61.2,50.1,29.60,North,0,0.0,1.0,67,0.00,,,0.00,WeatherCatV1.15B25,2013-06-03 12:10:00,
2013-06-03 05:15:00,61.2,50.1,29.60,North,0,0.0,1.0,67,0.00,,,0.00,WeatherCatV1.15B25,2013-06-03 12:15:00,
2013-06-03 05:20:00,61.2,50.1,29.60,North,0,0.0,1.0,67,0.00,,,0.00,WeatherCatV1.15B25,2013-06-03 12:20:00,
2013-06-03 05:25:00,61.2,50.1,29.60,North,0,0.0,1.0,67,0.00,,,0.00,WeatherCatV1.15B25,2013-06-03 12:25:00,
2013-06-03 05:30:00,61.6,49.3,29.61,North,0,0.0,1.0,64,0.00,,,0.00,WeatherCatV1.15B25,2013-06-03 12:30:00,
2013-06-03 05:35:00,61.6,49.3,29.61,North,0,0.0,1.0,64,0.00,,,0.00,WeatherCatV1.15B25,2013-06-03 12:35:00,
2013-06-03 05:40:00,61.6,49.3,29.61,North,0,0.0,1.0,64,0.00,,,0.00,WeatherCatV1.15B25,2013-06-03 12:40:00,
2013-06-03 05:45:00,61.6,49.3,29.61,North,0,0.0,1.0,64,0.00,,,0.00,WeatherCatV1.15B25,2013-06-03 12:45:00,
2013-06-03 05:50:00,61.6,49.3,29.61,North,0,0.0,1.0,64,0.00,,,0.00,WeatherCatV1.15B25,2013-06-03 12:50:00,
2013-06-03 05:55:00,61.6,49.3,29.61,North,0,0.0,1.0,64,0.00,,,0.00,WeatherCatV1.15B25,2013-06-03 12:55:00,
2013-06-03 06:00:00,61.6,49.3,29.61,North,0,0.0,1.0,64,0.00,,,0.00,WeatherCatV1.15B25,2013-06-03 13:00:00,
2013-06-03 06:05:00,61.6,49.3,29.61,North,0,0.0,1.0,64,0.00,,,0.00,WeatherCatV1.15B25,2013-06-03 13:05:00,
2013-06-03 06:10:00,61.6,49.3,29.61,North,0,0.0,1.0,64,0.00,,,0.00,WeatherCatV1.15B25,2013-06-03 13:10:00,
2013-06-03 06:15:00,61.6,49.3,29.61,North,0,0.0,1.0,64,0.00,,,0.00,WeatherCatV1.15B25,2013-06-03 13:15:00,
2013-06-03 06:20:00,61.6,49.3,29.61,North,0,0.0,1.0,64,0.00,,,0.00,WeatherCatV1.15B25,2013-06-03 13:20:00,
2013-06-03 06:25:00,61.6,49.3,29.61,North,0,0.0,1.0,64,0.00,,,0.00,WeatherCatV1.15B25,2013-06-03 13:25:00,
2013-06-03 06:30:00,59.6,49.0,29.61,North,0,0.0,1.0,68,0.00,,,0.00,WeatherCatV1.15B25,2013-06-03 13:30:00,
2013-06-03 06:35:00,59.6,49.0,29.61,North,0,0.0,1.0,68,0.00,,,0.00,WeatherCatV1.15B25,2013-06-03 13:35:00,
2013-06-03 06:40:00,59.6,49.0,29.61,North,0,0.0,1.0,68,0.00,,,0.00,WeatherCatV1.15B25,2013-06-03 13:40:00,
2013-06-03 06:45:00,59.6,49.0,29.61,North,0,0.0,1.0,68,0.00,,,0.00,WeatherCatV1.15B25,2013-06-03 13:45:00,
2013-06-03 06:50:00,59.6,49.0,29.61,North,0,0.0,1.0,68,0.00,,,0.00,WeatherCatV1.15B25,2013-06-03 13:50:00,
2013-06-03 06:55:00,59.6,49.0,29.61,North,0,0.0,1.0,68,0.00,,,0.00,WeatherCatV1.15B25,2013-06-03 13:55:00,
2013-06-03 07:00:00,59.6,49.0,29.61,North,0,0.0,1.0,68,0.00,,,0.00,WeatherCatV1.15B25,2013-06-03 14:00:00,
2013-06-03 07:05:00,59.6,49.0,29.61,North,0,0.0,1.0,68,0.00,,,0.00,WeatherCatV1.15B25,2013-06-03 14:05:00,
2013-06-03 07:10:00,59.6,49.0,29.61,North,0,0.0,1.0,68,0.00,,,0.00,WeatherCatV1.15B25,2013-06-03 14:10:00,
2013-06-03 07:15:00,59.6,49.0,29.61,North,0,0.0,1.0,68,0.00,,,0.00,WeatherCatV1.15B25,2013-06-03 14:15:00,
2013-06-03 07:20:00,59.6,49.0,29.61,North,0,0.0,1.0,68,0.00,,,0.00,WeatherCatV1.15B25,2013-06-03 14:20:00,
2013-06-03 07:25:00,59.6,49.0,29.61,North,0,0.0,1.0,68,0.00,,,0.00,WeatherCatV1.15B25,2013-06-03 14:25:00,
2013-06-03 07:30:00,63.8,47.3,29.63,NNE,22,0.0,1.0,55,0.00,,,0.00,WeatherCatV1.15B25,2013-06-03 14:30:00,
2013-06-03 07:35:00,63.8,47.3,29.63,NNE,22,0.0,1.0,55,0.00,,,0.00,WeatherCatV1.15B25,2013-06-03 14:35:00,
2013-06-03 07:40:00,63.8,47.3,29.63,NNE,22,0.0,1.0,55,0.00,,,0.00,WeatherCatV1.15B25,2013-06-03 14:40:00,
2013-06-03 07:45:00,63.8,47.3,29.63,NNE,22,0.0,1.0,55,0.00,,,0.00,WeatherCatV1.15B25,2013-06-03 14:45:00,
2013-06-03 07:50:00,63.8,47.3,29.63,NNE,22,0.0,1.0,55,0.00,,,0.00,WeatherCatV1.15B25,2013-06-03 14:50:00,
2013-06-03 07:55:00,63.8,47.3,29.63,NNE,22,0.0,1.0,55,0.00,,,0.00,WeatherCatV1.15B25,2013-06-03 14:55:00,
2013-06-03 08:00:00,63.8,47.3,29.63,NNE,22,0.0,1.0,55,0.00,,,0.00,WeatherCatV1.15B25,2013-06-03 15:00:00,
2013-06-03 08:05:00,63.8,47.3,29.63,NNE,22,0.0,1.0,55,0.00,,,0.00,WeatherCatV1.15B25,2013-06-03 15:05:00,
2013-06-03 08:10:00,63.8,47.3,29.63,NNE,22,0.0,1.0,55,0.00,,,0.00,WeatherCatV1.15B25,2013-06-03 15:10:00,
2013-06-03 08:15:00,63.8,47.3,29.63,NNE,22,0.0,1.0,55,0.00,,,0.00,WeatherCatV1.15B25,2013-06-03 15:15:00,
2013-06-03 08:20:00,63.8,47.3,29.63,NNE,22,0.0,1.0,55,0.00,,,0.00,WeatherCatV1.15B25,2013-06-03 15:20:00,
2013-06-03 08:25:00,63.8,47.3,29.63,NNE,22,0.0,1.0,55,0.00,,,0.00,WeatherCatV1.15B25,2013-06-03 15:25:00,
2013-06-03 08:30:00,68.6,46.4,29.64,East,90,0.0,1.0,45,0.00,,,0.00,WeatherCatV1.15B25,2013-06-03 15:30:00,
2013-06-03 08:35:00,68.6,46.4,29.64,East,90,0.0,1.0,45,0.00,,,0.00,WeatherCatV1.15B25,2013-06-03 15:35:00,
2013-06-03 08:40:00,68.6,46.4,29.64,East,90,0.0,1.0,45,0.00,,,0.00,WeatherCatV1.15B25,2013-06-03 15:40:00,
2013-06-03 08:45:00,68.6,46.4,29.64,East,90,0.0,1.0,45,0.00,,,0.00,WeatherCatV1.15B25,2013-06-03 15:45:00,
2013-06-03 08:50:00,68.6,46.4,29.64,East,90,0.0,1.0,45,0.00,,,0.00,WeatherCatV1.15B25,2013-06-03 15:50:00,
2013-06-03 08:55:00,68.6,46.4,29.64,East,90,0.0,1.0,45,0.00,,,0.00,WeatherCatV1.15B25,2013-06-03 15:55:00,
2013-06-03 09:00:00,68.6,46.4,29.64,East,90,0.0,1.0,45,0.00,,,0.00,WeatherCatV1.15B25,2013-06-03 16:00:00,
2013-06-03 09:05:00,68.6,46.4,29.64,East,90,0.0,1.0,45,0.00,,,0.00,WeatherCatV1.15B25,2013-06-03 16:05:00,
2013-06-03 09:10:00,68.6,46.4,29.64,East,90,0.0,1.0,45,0.00,,,0.00,WeatherCatV1.15B25,2013-06-03 16:10:00,
2013-06-03 09:15:00,68.6,46.4,29.64,East,90,0.0,1.0,45,0.00,,,0.00,WeatherCatV1.15B25,2013-06-03 16:15:00,
2013-06-03 09:20:00,68.6,46.4,29.64,East,90,0.0,1.0,45,0.00,,,0.00,WeatherCatV1.15B25,2013-06-03 16:20:00,
2013-06-03 09:25:00,68.6,46.4,29.64,East,90,0.0,1.0,45,0.00,,,0.00,WeatherCatV1.15B25,2013-06-03 16:25:00,
2013-06-03 09:30:00,75.1,54.0,29.64,East,90,0.0,2.0,48,0.00,,,0.00,WeatherCatV1.15B25,2013-06-03 16:30:00,
2013-06-03 09:35:00,75.1,54.0,29.64,East,90,0.0,2.0,48,0.00,,,0.00,WeatherCatV1.15B25,2013-06-03 16:35:00,
2013-06-03 09:40:00,75.1,54.0,29.64,East,90,0.0,2.0,48,0.00,,,0.00,WeatherCatV1.15B25,2013-06-03 16:40:00,
2013-06-03 09:45:00,75.1,54.0,29.64,East,90,0.0,2.0,48,0.00,,,0.00,WeatherCatV1.15B25,2013-06-03 16:45:00,
2013-06-03 09:50:00,75.1,54.0,29.64,East,90,0.0,2.0,48,0.00,,,0.00,WeatherCatV1.15B25,2013-06-03 16:50:00,
2013-06-03 09:55:00,75.1,54.0,29.64,East,90,0.0,2.0,48,0.00,,,0.00,WeatherCatV1.15B25,2013-06-03 16:55:00,
2013-06-03 10:00:00,75.1,54.0,29.64,East,90,0.0,2.0,48,0.00,,,0.00,WeatherCatV1.15B25,2013-06-03 17:00:00,
2013-06-03 10:05:00,75.1,54.0,29.64,East,90,0.0,2.0,48,0.00,,,0.00,WeatherCatV1.15B25,2013-06-03 17:05:00,
2013-06-03 10:10:00,75.1,54.0,29.64,East,90,0.0,2.0,48,0.00,,,0.00,WeatherCatV1.15B25,2013-06-03 17:10:00,
2013-06-03 10:15:00,75.1,54.0,29.64,East,90,0.0,2.0,48,0.00,,,0.00,WeatherCatV1.15B25,2013-06-03 17:15:00,
2013-06-03 10:20:00,75.1,54.0,29.64,East,90,0.0,2.0,48,0.00,,,0.00,WeatherCatV1.15B25,2013-06-03 17:20:00,
2013-06-03 10:25:00,75.1,54.0,29.64,East,90,0.0,2.0,48,0.00,,,0.00,WeatherCatV1.15B25,2013-06-03 17:25:00,
2013-06-03 10:30:00,80.3,55.7,29.65,WSW,248,0.0,1.0,43,0.00,,,0.00,WeatherCatV1.15B25,2013-06-03 17:30:00,
2013-06-03 10:35:00,80.3,55.7,29.65,WSW,248,0.0,1.0,43,0.00,,,0.00,WeatherCatV1.15B25,2013-06-03 17:35:00,
2013-06-03 10:40:00,80.3,55.7,29.65,WSW,248,0.0,1.0,43,0.00,,,0.00,WeatherCatV1.15B25,2013-06-03 17:40:00,
2013-06-03 10:45:00,80.3,55.7,29.65,WSW,248,0.0,1.0,43,0.00,,,0.00,WeatherCatV1.15B25,2013-06-03 17:45:00,
2013-06-03 10:50:00,80.3,55.7,29.65,WSW,248,0.0,1.0,43,0.00,,,0.00,WeatherCatV1.15B25,2013-06-03 17:50:00,
2013-06-03 10:55:00,80.3,55.7,29.65,WSW,248,0.0,1.0,43,0.00,,,0.00,WeatherCatV1.15B25,2013-06-03 17:55:00,
2013-06-03 11:00:00,80.3,55.7,29.65,WSW,248,0.0,1.0,43,0.00,,,0.00,WeatherCatV1.15B25,2013-06-03 18:00:00,
2013-06-03 11:05:00,80.3,55.7,29.65,WSW,248,0.0,1.0,43,0.00,,,0.00,WeatherCatV1.15B25,2013-06-03 18:05:00,
2013-06-03 11:10:00,80.3,55.7,29.65,WSW,248,0.0,1.0,43,0.00,,,0.00,WeatherCatV1.15B25,2013-06-03 18:10:00,
2013-06-03 11:15:00,80.3,55.7,29.65,WSW,248,0.0,1.0,43,0.00,,,0.00,WeatherCatV1.15B25,2013-06-03 18:15:00,
2013-06-03 11:20:00,80.3,55.7,29.65,WSW,248,0.0,1.0,43,0.00,,,0.00,WeatherCatV1.15B25,2013-06-03 18:20:00,
2013-06-03 11:25:00,80.3,55.7,29.65,WSW,248,0.0,1.0,43,0.00,,,0.00,WeatherCatV1.15B25,2013-06-03 18:25:00,
2013-06-03 11:30:00,86.7,54.9,29.65,West,270,1.0,4.0,34,0.00,,,0.00,WeatherCatV1.15B25,2013-06-03 18:30:00,
2013-06-03 11:35:00,86.7,54.9,29.65,West,270,1.0,4.0,34,0.00,,,0.00,WeatherCatV1.15B25,2013-06-03 18:35:00,
2013-06-03 11:40:00,86.7,54.9,29.65,West,270,1.0,4.0,34,0.00,,,0.00,WeatherCatV1.15B25,2013-06-03 18:40:00,
2013-06-03 11:45:00,86.7,54.9,29.65,West,270,1.0,4.0,34,0.00,,,0.00,WeatherCatV1.15B25,2013-06-03 18:45:00,
2013-06-03 11:50:00,86.7,54.9,29.65,West,270,1.0,4.0,34,0.00,,,0.00,WeatherCatV1.15B25,2013-06-03 18:50:00,
2013-06-03 11:55:00,86.7,54.9,29.65,West,270,1.0,4.0,34,0.00,,,0.00,WeatherCatV1.15B25,2013-06-03 18:55:00,
2013-06-03 12:00:00,86.7,54.9,29.65,West,270,1.0,4.0,34,0.00,,,0.00,WeatherCatV1.15B25,2013-06-03 19:00:00,
2013-06-03 12:05:00,86.7,54.9,29.65,West,270,1.0,4.0,34,0.00,,,0.00,WeatherCatV1.15B25,2013-06-03 19:05:00,
2013-06-03 12:10:00,86.7,54.9,29.65,West,270,1.0,4.0,34,0.00,,,0.00,WeatherCatV1.15B25,2013-06-03 19:10:00,
2013-06-03 12:15:00,86.7,54.9,29.65,West,270,1.0,4.0,34,0.00,,,0.00,WeatherCatV1.15B25,2013-06-03 19:15:00,
2013-06-03 12:20:00,86.7,54.9,29.65,West,270,1.0,4.0,34,0.00,,,0.00,WeatherCatV1.15B25,2013-06-03 19:20:00,
2013-06-03 12:25:00,86.7,54.9,29.65,West,270,1.0,4.0,34,0.00,,,0.00,WeatherCatV1.15B25,2013-06-03 19:25:00,
2013-06-03 12:30:00,86.1,54.4,29.65,West,270,2.0,5.0,34,0.00,,,0.00,WeatherCatV1.15B25,2013-06-03 19:30:00,
2013-06-03 12:35:00,86.1,54.4,29.65,West,270,2.0,5.0,34,0.00,,,0.00,WeatherCatV1.15B25,2013-06-03 19:35:00,
2013-06-03 12:40:00,86.1,54.4,29.65,West,270,2.0,5.0,34,0.00,,,0.00,WeatherCatV1.15B25,2013-06-03 19:40:00,
2013-06-03 12:45:00,86.1,54.4,29.65,West,270,2.0,5.0,34,0.00,,,0.00,WeatherCatV1.15B25,2013-06-03 19:45:00,
2013-06-03 12:50:00,86.1,54.4,29.65,West,270,2.0,5.0,34,0.00,,,0.00,WeatherCatV1.15B25,2013-06-03 19:50:00,
2013-06-03 12:55:00,86.1,54.4,29.65,West,270,2.0,5.0,34,0.00,,,0.00,WeatherCatV1.15B25,2013-06-03 19:55:00,
2013-06-03 13:00:00,86.1,54.4,29.65,West,270,2.0,5.0,34,0.00,,,0.00,WeatherCatV1.15B25,2013-06-03 20:00:00,
2013-06-03 13:05:00,86.1,54.4,29.65,West,270,2.0,5.0,34,0.00,,,0.00,WeatherCatV1.15B25,2013-06-03 20:05:00,
2013-06-03 13:10:00,86.1,54.4,29.65,West,270,2.0,5.0,34,0.00,,,0.00,WeatherCatV1.15B25,2013-06-03 20:10:00,
2013-06-03 13:15:00,86.1,54.4,29.65,West,270,2.0,5.0,34,0.00,,,0.00,WeatherCatV1.15B25,2013-06-03 20:15:00,
2013-06-03 13:20:00,86.1,54.4,29.65,West,270,2.0,5.0,34,0.00,,,0.00,WeatherCatV1.15B25,2013-06-03 20:20:00,
2013-06-03 13:25:00,86.1,54.4,29.65,West,270,2.0,5.0,34,0.00,,,0.00,WeatherCatV1.15B25,2013-06-03 20:25:00,
2013-06-03 13:30:00,87.2,51.9,29.65,West,270,2.0,5.0,30,0.00,,,0.00,WeatherCatV1.15B25,2013-06-03 20:30:00,
2013-06-03 13:35:00,87.2,51.9,29.65,West,270,2.0,5.0,30,0.00,,,0.00,WeatherCatV1.15B25,2013-06-03 20:35:00,
2013-06-03 13:40:00,87.2,51.9,29.65,West,270,2.0,5.0,30,0.00,,,0.00,WeatherCatV1.15B25,2013-06-03 20:40:00,
2013-06-03 13:45:00,87.2,51.9,29.65,West,270,2.0,5.0,30,0.00,,,0.00,WeatherCatV1.15B25,2013-06-03 20:45:00,
2013-06-03 13:50:00,87.2,51.9,29.65,West,270,2.0,5.0,30,0.00,,,0.00,WeatherCatV1.15B25,2013-06-03 20:50:00,
2013-06-03 13:55:00,87.2,51.9,29.65,West,270,2.0,5.0,30,0.00,,,0.00,WeatherCatV1.15B25,2013-06-03 20:55:00,
2013-06-03 14:00:00,87.2,51.9,29.65,West,270,2.0,5.0,30,0.00,,,0.00,WeatherCatV1.15B25,2013-06-03 21:00:00,
2013-06-03 14:05:00,87.2,51.9,29.65,West,270,2.0,5.0,30,0.00,,,0.00,WeatherCatV1.15B25,2013-06-03 21:05:00,
2013-06-03 14:10:00,87.2,51.9,29.65,West,270,2.0,5.0,30,0.00,,,0.00,WeatherCatV1.15B25,2013-06-03 21:10:00,
2013-06-03 14:15:00,87.2,51.9,29.65,West,270,2.0,5.0,30,0.00,,,0.00,WeatherCatV1.15B25,2013-06-03 21:15:00,
2013-06-03 14:20:00,87.2,51.9,29.65,West,270,2.0,5.0,30,0.00,,,0.00,WeatherCatV1.15B25,2013-06-03 21:20:00,
2013-06-03 14:25:00,87.2,51.9,29.65,West,270,2.0,5.0,30,0.00,,,0.00,WeatherCatV1.15B25,2013-06-03 21:25:00,
2013-06-03 14:30:00,86.8,50.7,29.66,West,270,3.0,6.0,29,0.00,,,0.00,WeatherCatV1.15B25,2013-06-03 21:30:00,
2013-06-03 14:35:00,86.8,50.7,29.66,West,270,3.0,6.0,29,0.00,,,0.00,WeatherCatV1.15B25,2013-06-03 21:35:00,
2013-06-03 14:40:00,86.8,50.7,29.66,West,270,3.0,6.0,29,0.00,,,0.00,WeatherCatV1.15B25,2013-06-03 21:40:00,
2013-06-03 14:45:00,86.8,50.7,29.66,West,270,3.0,6.0,29,0.00,,,0.00,WeatherCatV1.15B25,2013-06-03 21:45:00,
2013-06-03 14:50:00,86.8,50.7,29.66,West,270,3.0,6.0,29,0.00,,,0.00,WeatherCatV1.15B25,2013-06-03 21:50:00,
2013-06-03 14:55:00,86.8,50.7,29.66,West,270,3.0,6.0,29,0.00,,,0.00,WeatherCatV1.15B25,2013-06-03 21:55:00,
2013-06-03 15:00:00,86.8,50.7,29.66,West,270,3.0,6.0,29,0.00,,,0.00,WeatherCatV1.15B25,2013-06-03 22:00:00,
2013-06-03 15:05:00,86.8,50.7,29.66,West,270,3.0,6.0,29,0.00,,,0.00,WeatherCatV1.15B25,2013-06-03 22:05:00,
2013-06-03 15:10:00,86.8,50.7,29.66,West,270,3.0,6.0,29,0.00,,,0.00,WeatherCatV1.15B25,2013-06-03 22:10:00,
2013-06-03 15:15:00,86.8,50.7,29.66,West,270,3.0,6.0,29,0.00,,,0.00,WeatherCatV1.15B25,2013-06-03 22:15:00,
2013-06-03 15:20:00,86.8,50.7,29.66,West,270,3.0,6.0,29,0.00,,,0.00,WeatherCatV1.15B25,2013-06-03 22:20:00,
2013-06-03 15:25:00,86.8,50.7,29.66,West,270,3.0,6.0,29,0.00,,,0.00,WeatherCatV1.15B25,2013-06-03 22:25:00,
2013-06-03 15:30:00,87.8,48.6,29.66,West,270,2.0,6.0,26,0.00,,,0.00,WeatherCatV1.15B25,2013-06-03 22:30:00,
2013-06-03 15:35:00,87.8,48.6,29.66,West,270,2.0,6.0,26,0.00,,,0.00,WeatherCatV1.15B25,2013-06-03 22:35:00,
2013-06-03 15:40:00,87.8,48.6,29.66,West,270,2.0,6.0,26,0.00,,,0.00,WeatherCatV1.15B25,2013-06-03 22:40:00,
2013-06-03 15:45:00,87.8,48.6,29.66,West,270,2.0,6.0,26,0.00,,,0.00,WeatherCatV1.15B25,2013-06-03 22:45:00,
2013-06-03 15:50:00,87.8,48.6,29.66,West,270,2.0,6.0,26,0.00,,,0.00,WeatherCatV1.15B25,2013-06-03 22:50:00,
2013-06-03 15:55:00,87.8,48.6,29.66,West,270,2.0,6.0,26,0.00,,,0.00,WeatherCatV1.15B25,2013-06-03 22:55:00,
2013-06-03 16:00:00,87.8,48.6,29.66,West,270,2.0,6.0,26,0.00,,,0.00,WeatherCatV1.15B25,2013-06-03 23:00:00,
2013-06-03 16:05:00,87.8,48.6,29.66,West,270,2.0,6.0,26,0.00,,,0.00,WeatherCatV1.15B25,2013-06-03 23:05:00,
2013-06-03 16:10:00,87.8,48.6,29.66,West,270,2.0,6.0,26,0.00,,,0.00,WeatherCatV1.15B25,2013-06-03 23:10:00,
2013-06-03 16:15:00,87.8,48.6,29.66,West,270,2.0,6.0,26,0.00,,,0.00,WeatherCatV1.15B25,2013-06-03 23:15:00,
2013-06-03 16:20:00,87.8,48.6,29.66,West,270,2.0,6.0,26,0.00,,,0.00,WeatherCatV1.15B25,2013-06-03 23:20:00,
2013-06-03 16:25:00,87.8,48.6,29.66,West,270,2.0,6.0,26,0.00,,,0.00,WeatherCatV1.15B25,2013-06-03 23:25:00,
2013-06-03 16:30:00,87.5,50.3,29.65,SW,223,2.0,4.0,28,0.00,,,0.00,WeatherCatV1.15B25,2013-06-03 23:30:00,
2013-06-03 16:35:00,87.3,49.2,29.65,WSW,250,2.0,3.0,27,0.00,,,0.00,WeatherCatV1.15B25,2013-06-03 23:35:00,
2013-06-03 16:40:00,87.1,48.0,29.65,West,272,3.0,4.0,26,0.00,,,0.00,WeatherCatV1.15B25,2013-06-03 23:40:00,
2013-06-03 16:45:00,87.0,47.9,29.65,West,268,2.0,2.0,26,0.00,,,0.00,WeatherCatV1.15B25,2013-06-03 23:45:00,
2013-06-03 16:50:00,87.0,49.9,29.65,West,274,2.0,3.0,28,0.00,,,0.00,WeatherCatV1.15B25,2013-06-03 23:50:00,
2013-06-03 16:55:00,87.0,47.9,29.65,West,271,2.0,4.0,26,0.00,,,0.00,WeatherCatV1.15B25,2013-06-03 23:55:00,
2013-06-03 17:00:00,87.1,49.0,29.65,West,272,2.0,2.0,27,0.00,,,0.00,WeatherCatV1.15B25,2013-06-04 00:00:00,
2013-06-03 17:05:00,87.1,49.0,29.65,WSW,249,2.0,5.0,27,0.00,,,0.00,WeatherCatV1.15B25,2013-06-04 00:05:00,
2013-06-03 17:10:00,86.9,47.8,29.65,SW,223,2.0,2.0,26,0.00,,,0.00,WeatherCatV1.15B25,2013-06-04 00:10:00,
2013-06-03 17:15:00,87.1,48.0,29.65,WSW,247,2.0,3.0,26,0.00,,,0.00,WeatherCatV1.15B25,2013-06-04 00:15:00,
2013-06-03 17:20:00,87.0,48.9,29.64,SW,234,1.0,3.0,27,0.00,,,0.00,WeatherCatV1.15B25,2013-06-04 00:20:00,
2013-06-03 17:25:00,86.9,48.8,29.64,WSW,258,1.0,4.0,27,0.00,,,0.00,WeatherCatV1.15B25,2013-06-04 00:25:00,
2013-06-03 17:30:00,87.0,48.9,29.64,West,266,1.0,3.0,27,0.00,,,0.00,WeatherCatV1.15B25,2013-06-04 00:30:00,
2013-06-03 17:35:00,87.0,48.9,29.64,West,266,1.0,3.0,27,0.00,,,0.00,WeatherCatV1.15B25,2013-06-04 00:35:00,
2013-06-03 17:40:00,87.0,48.9,29.64,West,266,1.0,3.0,27,0.00,,,0.00,WeatherCatV1.15B25,2013-06-04 00:40:00,
2013-06-03 17:45:00,87.0,48.9,29.64,West,266,1.0,3.0,27,0.00,,,0.00,WeatherCatV1.15B25,2013-06-04 00:45:00,
2013-06-03 17:50:00,87.0,48.9,29.64,West,266,1.0,3.0,27,0.00,,,0.00,WeatherCatV1.15B25,2013-06-04 00:50:00,
2013-06-03 17:55:00,87.0,48.9,29.64,West,266,1.0,3.0,27,0.00,,,0.00,WeatherCatV1.15B25,2013-06-04 00:55:00,
2013-06-03 18:00:00,87.2,49.1,29.65,West,270,2.0,6.0,27,0.00,,,0.00,WeatherCatV1.15B25,2013-06-04 01:00:00,
2013-06-03 18:05:00,87.2,49.1,29.65,West,270,2.0,6.0,27,0.00,,,0.00,WeatherCatV1.15B25,2013-06-04 01:05:00,
2013-06-03 18:10:00,87.2,49.1,29.65,West,270,2.0,6.0,27,0.00,,,0.00,WeatherCatV1.15B25,2013-06-04 01:10:00,
2013-06-03 18:15:00,87.2,49.1,29.65,West,270,2.0,6.0,27,0.00,,,0.00,WeatherCatV1.15B25,2013-06-04 01:15:00,
2013-06-03 18:20:00,87.2,49.1,29.65,West,270,2.0,6.0,27,0.00,,,0.00,WeatherCatV1.15B25,2013-06-04 01:20:00,
2013-06-03 18:25:00,87.2,49.1,29.65,West,270,2.0,6.0,27,0.00,,,0.00,WeatherCatV1.15B25,2013-06-04 01:25:00,
2013-06-03 18:30:00,87.2,49.1,29.65,West,270,2.0,6.0,27,0.00,,,0.00,WeatherCatV1.15B25,2013-06-04 01:30:00,
2013-06-03 18:35:00,87.2,49.1,29.65,West,270,2.0,6.0,27,0.00,,,0.00,WeatherCatV1.15B25,2013-06-04 01:35:00,
2013-06-03 18:40:00,87.2,49.1,29.65,West,270,2.0,6.0,27,0.00,,,0.00,WeatherCatV1.15B25,2013-06-04 01:40:00,
2013-06-03 18:45:00,87.2,49.1,29.65,West,270,2.0,6.0,27,0.00,,,0.00,WeatherCatV1.15B25,2013-06-04 01:45:00,
2013-06-03 18:50:00,87.2,49.1,29.65,West,270,2.0,6.0,27,0.00,,,0.00,WeatherCatV1.15B25,2013-06-04 01:50:00,
2013-06-03 18:55:00,87.2,49.1,29.65,West,270,2.0,6.0,27,0.00,,,0.00,WeatherCatV1.15B25,2013-06-04 01:55:00,
2013-06-03 19:00:00,86.5,51.3,29.64,West,270,1.0,5.0,30,0.00,,,0.00,WeatherCatV1.15B25,2013-06-04 02:00:00,
2013-06-03 19:05:00,86.5,51.3,29.64,West,270,1.0,5.0,30,0.00,,,0.00,WeatherCatV1.15B25,2013-06-04 02:05:00,
2013-06-03 19:10:00,86.5,51.3,29.64,West,270,1.0,5.0,30,0.00,,,0.00,WeatherCatV1.15B25,2013-06-04 02:10:00,
2013-06-03 19:15:00,86.5,51.3,29.64,West,270,1.0,5.0,30,0.00,,,0.00,WeatherCatV1.15B25,2013-06-04 02:15:00,
2013-06-03 19:20:00,86.5,51.3,29.64,West,270,1.0,5.0,30,0.00,,,0.00,WeatherCatV1.15B25,2013-06-04 02:20:00,
2013-06-03 19:25:00,86.5,51.3,29.64,West,270,1.0,5.0,30,0.00,,,0.00,WeatherCatV1.15B25,2013-06-04 02:25:00,
2013-06-03 19:30:00,86.5,51.3,29.64,West,270,1.0,5.0,30,0.00,,,0.00,WeatherCatV1.15B25,2013-06-04 02:30:00,
2013-06-03 19:35:00,86.5,51.3,29.64,West,270,1.0,5.0,30,0.00,,,0.00,WeatherCatV1.15B25,2013-06-04 02:35:00,
2013-06-03 19:40:00,86.5,51.3,29.64,West,270,1.0,5.0,30,0.00,,,0.00,WeatherCatV1.15B25,2013-06-04 02:40:00,
2013-06-03 19:45:00,86.5,51.3,29.64,West,270,1.0,5.0,30,0.00,,,0.00,WeatherCatV1.15B25,2013-06-04 02:45:00,
2013-06-03 19:50:00,86.5,51.3,29.64,West,270,1.0,5.0,30,0.00,,,0.00,WeatherCatV1.15B25,2013-06-04 02:50:00,
2013-06-03 19:55:00,86.5,51.3,29.64,West,270,1.0,5.0,30,0.00,,,0.00,WeatherCatV1.15B25,2013-06-04 02:55:00,
2013-06-03 20:00:00,85.0,52.6,29.65,West,270,1.0,4.0,33,0.00,,,0.00,WeatherCatV1.15B25,2013-06-04 03:00:00,
2013-06-03 20:05:00,85.0,52.6,29.65,West,270,1.0,4.0,33,0.00,,,0.00,WeatherCatV1.15B25,2013-06-04 03:05:00,
2013-06-03 20:10:00,85.0,52.6,29.65,West,270,1.0,4.0,33,0.00,,,0.00,WeatherCatV1.15B25,2013-06-04 03:10:00,
2013-06-03 20:15:00,85.0,52.6,29.65,West,270,1.0,4.0,33,0.00,,,0.00,WeatherCatV1.15B25,2013-06-04 03:15:00,
2013-06-03 20:20:00,85.0,52.6,29.65,West,270,1.0,4.0,33,0.00,,,0.00,WeatherCatV1.15B25,2013-06-04 03:20:00,
2013-06-03 20:25:00,85.0,52.6,29.65,West,270,1.0,4.0,33,0.00,,,0.00,WeatherCatV1.15B25,2013-06-04 03:25:00,
2013-06-03 20:30:00,85.0,52.6,29.65,West,270,1.0,4.0,33,0.00,,,0.00,WeatherCatV1.15B25,2013-06-04 03:30:00,
2013-06-03 20:35:00,85.0,52.6,29.65,West,270,1.0,4.0,33,0.00,,,0.00,WeatherCatV1.15B25,2013-06-04 03:35:00,
2013-06-03 20:40:00,85.0,52.6,29.65,West,270,1.0,4.0,33,0.00,,,0.00,WeatherCatV1.15B25,2013-06-04 03:40:00,
2013-06-03 20:45:00,85.0,52.6,29.65,West,270,1.0,4.0,33,0.00,,,0.00,WeatherCatV1.15B25,2013-06-04 03:45:00,
2013-06-03 20:50:00,85.0,52.6,29.65,West,270,1.0,4.0,33,0.00,,,0.00,WeatherCatV1.15B25,2013-06-04 03:50:00,
2013-06-03 20:55:00,85.0,52.6,29.65,West,270,1.0,4.0,33,0.00,,,0.00,WeatherCatV1.15B25,2013-06-04 03:55:00,
2013-06-03 21:00:00,82.0,52.4,29.66,SW,225,0.0,1.0,36,0.00,,,0.00,WeatherCatV1.15B25,2013-06-04 04:00:00,
2013-06-03 21:05:00,82.0,52.4,29.66,SW,225,0.0,1.0,36,0.00,,,0.00,WeatherCatV1.15B25,2013-06-04 04:05:00,
2013-06-03 21:10:00,82.0,52.4,29.66,SW,225,0.0,1.0,36,0.00,,,0.00,WeatherCatV1.15B25,2013-06-04 04:10:00,
2013-06-03 21:15:00,82.0,52.4,29.66,SW,225,0.0,1.0,36,0.00,,,0.00,WeatherCatV1.15B25,2013-06-04 04:15:00,
2013-06-03 21:20:00,82.0,52.4,29.66,SW,225,0.0,1.0,36,0.00,,,0.00,WeatherCatV1.15B25,2013-06-04 04:20:00,
2013-06-03 21:25:00,82.0,52.4,29.66,SW,225,0.0,1.0,36,0.00,,,0.00,WeatherCatV1.15B25,2013-06-04 04:25:00,
2013-06-03 21:30:00,82.0,52.4,29.66,SW,225,0.0,1.0,36,0.00,,,0.00,WeatherCatV1.15B25,2013-06-04 04:30:00,
2013-06-03 21:35:00,82.0,52.4,29.66,SW,225,0.0,1.0,36,0.00,,,0.00,WeatherCatV1.15B25,2013-06-04 04:35:00,
2013-06-03 21:40:00,82.0,52.4,29.66,SW,225,0.0,1.0,36,0.00,,,0.00,WeatherCatV1.15B25,2013-06-04 04:40:00,
2013-06-03 21:45:00,82.0,52.4,29.66,SW,225,0.0,1.0,36,0.00,,,0.00,WeatherCatV1.15B25,2013-06-04 04:45:00,
2013-06-03 21:50:00,82.0,52.4,29.66,SW,225,0.0,1.0,36,0.00,,,0.00,WeatherCatV1.15B25,2013-06-04 04:50:00,
2013-06-03 21:55:00,82.0,52.4,29.66,SW,225,0.0,1.0,36,0.00,,,0.00,WeatherCatV1.15B25,2013-06-04 04:55:00,
2013-06-03 22:00:00,75.9,55.3,29.67,SW,225,0.0,0.0,49,0.00,,,0.00,WeatherCatV1.15B25,2013-06-04 05:00:00,
2013-06-03 22:05:00,75.9,55.3,29.67,SW,225,0.0,0.0,49,0.00,,,0.00,WeatherCatV1.15B25,2013-06-04 05:05:00,
2013-06-03 22:10:00,75.9,55.3,29.67,SW,225,0.0,0.0,49,0.00,,,0.00,WeatherCatV1.15B25,2013-06-04 05:10:00,
2013-06-03 22:15:00,75.9,55.3,29.67,SW,225,0.0,0.0,49,0.00,,,0.00,WeatherCatV1.15B25,2013-06-04 05:15:00,
2013-06-03 22:20:00,75.9,55.3,29.67,SW,225,0.0,0.0,49,0.00,,,0.00,WeatherCatV1.15B25,2013-06-04 05:20:00,
2013-06-03 22:25:00,75.9,55.3,29.67,SW,225,0.0,0.0,49,0.00,,,0.00,WeatherCatV1.15B25,2013-06-04 05:25:00,
2013-06-03 22:30:00,75.9,55.3,29.67,SW,225,0.0,0.0,49,0.00,,,0.00,WeatherCatV1.15B25,2013-06-04 05:30:00,
2013-06-03 22:35:00,75.9,55.3,29.67,SW,225,0.0,0.0,49,0.00,,,0.00,WeatherCatV1.15B25,2013-06-04 05:35:00,
2013-06-03 22:40:00,75.9,55.3,29.67,SW,225,0.0,0.0,49,0.00,,,0.00,WeatherCatV1.15B25,2013-06-04 05:40:00,
2013-06-03 22:45:00,75.9,55.3,29.67,SW,225,0.0,0.0,49,0.00,,,0.00,WeatherCatV1.15B25,2013-06-04 05:45:00,
2013-06-03 22:50:00,75.9,55.3,29.67,SW,225,0.0,0.0,49,0.00,,,0.00,WeatherCatV1.15B25,2013-06-04 05:50:00,
2013-06-03 22:55:00,75.9,55.3,29.67,SW,225,0.0,0.0,49,0.00,,,0.00,WeatherCatV1.15B25,2013-06-04 05:55:00,
2013-06-03 23:00:00,70.9,56.3,29.68,SW,225,0.0,0.0,60,0.00,,,0.00,WeatherCatV1.15B25,2013-06-04 06:00:00,
2013-06-03 23:05:00,70.9,56.3,29.68,SW,225,0.0,0.0,60,0.00,,,0.00,WeatherCatV1.15B25,2013-06-04 06:05:00,
2013-06-03 23:10:00,70.9,56.3,29.68,SW,225,0.0,0.0,60,0.00,,,0.00,WeatherCatV1.15B25,2013-06-04 06:10:00,
2013-06-03 23:15:00,70.9,56.3,29.68,SW,225,0.0,0.0,60,0.00,,,0.00,WeatherCatV1.15B25,2013-06-04 06:15:00,
2013-06-03 23:20:00,70.9,56.3,29.68,SW,225,0.0,0.0,60,0.00,,,0.00,WeatherCatV1.15B25,2013-06-04 06:20:00,
2013-06-03 23:25:00,70.9,56.3,29.68,SW,225,0.0,0.0,60,0.00,,,0.00,WeatherCatV1.15B25,2013-06-04 06:25:00,
2013-06-03 23:30:00,70.9,56.3,29.68,SW,225,0.0,0.0,60,0.00,,,0.00,WeatherCatV1.15B25,2013-06-04 06:30:00,
2013-06-03 23:35:00,70.9,56.3,29.68,SW,225,0.0,0.0,60,0.00,,,0.00,WeatherCatV1.15B25,2013-06-04 06:35:00,
2013-06-03 23:40:00,70.9,56.3,29.68,SW,225,0.0,0.0,60,0.00,,,0.00,WeatherCatV1.15B25,2013-06-04 06:40:00,
2013-06-03 23:45:00,70.9,56.3,29.68,SW,225,0.0,0.0,60,0.00,,,0.00,WeatherCatV1.15B25,2013-06-04 06:45:00,
2013-06-03 23:50:00,70.9,56.3,29.68,SW,225,0.0,0.0,60,0.00,,,0.00,WeatherCatV1.15B25,2013-06-04 06:50:00,
2013-06-03 23:55:00,70.9,56.3,29.68,SW,225,0.0,0.0,60,0.00,,,0.00,WeatherCatV1.15B25,2013-06-04 06:55:00,